Location: Freistadt
(48.5112°N, 14.5013°E)
Time: 01:16:01
(UTC+02:00)

O/OREOS (USA 219) - Pass Details

Date: 05 April 2023
Orbit: 621 x 646 km, 72.0° (Epoch: 22 May)

Event Time Altitude Azimuth Distance (km) Brightness Sun altitude
Exits shadow 05:41:38 11° 234° (SW) 1,996 ? -9.0°
Maximum altitude 05:45:50 40° 304° (WNW) 950 ? -8.3°
Drops below altitude 10° 05:50:08 10° 14° (NNE) 2,029 ? -7.7°
Sets 05:52:32 0° 22° (NNE) 2,937 ? -7.3°
